period_start,C,m1,H,J0,J1,J2,J3,J4,J5,JA,JB,JC,JD,JJ,JK,JN,#
2017-05-04 00:04:30,0.04,1.99,0.00,22.84,26.47,30.18,14.73,49.06,1029.80,2032.01,2706.27,2595.11,2949.99,600.14,604.29,54.75,0000 0000 0000 0000 000000
2017-05-04 00:09:31,0.01,1.99,0.00,22.83,26.47,30.03,14.73,48.96,1029.80,2032.02,2705.99,2595.00,2949.50,599.92,603.99,54.81,0000 0000 0000 0000 000000
2017-05-04 00:14:32,0.01,1.99,0.00,22.98,26.49,29.96,14.76,48.77,1029.80,2032.00,2705.83,2594.96,2949.04,600.36,604.18,54.86,0000 0000 0000 0000 000000
2017-05-04 00:19:34,0.04,1.99,0.00,23.18,26.51,30.17,14.70,48.87,1029.80,2032.00,2705.10,2594.32,2948.98,600.10,603.66,54.91,0000 0000 0000 0000 000000
2017-05-04 00:24:35,0.02,1.99,0.00,23.32,26.53,30.20,14.70,48.72,1029.80,2032.00,2704.96,2594.00,2948.34,600.37,603.53,54.96,0000 0000 0000 0000 000000
2017-05-04 00:29:36,0.02,2.00,0.00,23.14,26.56,30.28,14.68,48.81,1029.80,2032.00,2704.28,2593.95,2948.00,600.09,603.33,55.01,0000 0000 0000 0000 000000
2017-05-04 00:34:37,0.02,2.00,0.00,22.97,26.57,30.43,14.79,49.04,1029.80,2032.00,2704.00,2593.44,2947.96,600.12,603.94,55.06,0000 0000 0000 0000 000000
2017-05-04 00:39:39,0.03,2.00,0.00,22.92,26.57,30.59,14.78,48.93,1029.80,2032.00,2703.60,2593.02,2947.35,600.22,604.13,55.11,0000 0000 0000 0000 000000
2017-05-04 00:44:40,0.62,2.01,0.00,22.86,26.57,30.49,14.74,49.03,1029.80,2032.00,2695.78,2589.54,2943.14,599.88,603.69,55.16,0000 0000 0000 0000 000000
2017-05-04 00:49:41,0.12,2.04,0.00,22.86,26.57,30.41,14.75,48.92,1029.80,2032.00,2688.06,2585.33,2939.04,599.81,603.90,55.21,0000 0000 0000 0000 000000
2017-05-04 00:54:43,0.03,2.04,0.00,22.88,26.57,30.34,14.80,48.89,1029.79,2031.99,2687.25,2585.01,2938.58,599.92,603.94,55.26,0000 0000 0000 0000 000000
2017-05-04 00:59:44,0.00,2.04,0.00,22.87,26.57,30.35,14.79,49.02,1029.77,2031.99,2687.00,2585.00,2938.08,600.09,604.20,55.31,0000 0000 0000 0000 000000
2017-05-04 01:04:45,0.01,2.04,0.00,22.87,26.57,30.32,14.78,49.02,1029.77,2031.99,2686.76,2584.91,2938.00,599.76,603.78,55.36,0000 0000 0000 0000 000000
2017-05-04 01:09:47,0.04,2.04,0.00,22.89,26.56,30.27,14.72,49.05,1029.78,2031.99,2686.09,2584.36,2937.90,600.04,604.00,55.41,0000 0000 0000 0000 000000
2017-05-04 01:14:48,0.05,2.04,0.00,22.91,26.55,30.23,14.72,49.07,1029.79,2031.99,2685.55,2583.81,2937.01,600.09,604.03,55.46,0000 0000 0000 0000 000000
2017-05-04 01:19:49,0.06,2.05,0.00,22.92,26.55,30.26,14.68,49.11,1029.79,2031.99,2684.08,2583.04,2936.05,599.83,603.76,55.51,0000 0000 0000 0000 000000
2017-05-04 01:24:50,0.01,2.05,0.00,22.94,26.56,30.29,14.76,49.02,1029.79,2031.99,2683.78,2582.96,2935.98,600.07,603.97,55.56,0000 0000 0000 0000 000000
2017-05-04 01:29:51,0.05,2.05,0.00,22.96,26.57,30.31,14.68,49.07,1029.79,2031.99,2683.08,2582.32,2935.39,600.10,603.98,55.61,0000 0000 0000 0000 000000
2017-05-04 01:34:52,0.01,2.05,0.00,22.96,26.57,30.34,14.71,49.04,1029.80,2031.99,2682.82,2582.01,2935.00,599.85,603.65,55.66,0000 0000 0000 0000 000000
2017-05-04 01:39:54,0.02,2.05,0.00,23.15,26.57,30.26,14.75,48.91,1029.78,2031.99,2682.09,2581.98,2934.87,600.40,603.74,55.71,0000 0000 0000 0000 000000
2017-05-04 01:44:55,0.04,2.06,0.00,23.24,26.59,30.24,14.73,49.10,1029.80,2031.98,2681.99,2581.35,2934.10,600.09,603.36,55.77,0000 0000 0000 0000 000000
2017-05-04 01:49:56,0.02,2.06,0.00,23.44,26.61,30.20,14.65,48.87,1029.80,2031.98,2681.57,2581.01,2933.98,600.30,603.22,55.82,0000 0000 0000 0000 000000
2017-05-04 01:54:58,0.01,2.06,0.00,23.41,26.64,30.25,14.58,48.85,1029.80,2031.94,2681.00,2580.93,2933.37,599.56,602.48,55.87,0000 0000 0000 0000 000000
2017-05-04 01:59:59,0.04,2.06,0.00,23.20,26.65,30.43,14.73,48.93,1029.80,2031.91,2680.42,2580.29,2933.01,599.98,603.35,55.92,0000 0000 0000 0000 000000
2017-05-04 02:05:01,0.01,2.06,0.00,23.13,26.66,30.61,14.68,48.83,1029.80,2031.74,2679.78,2579.98,2932.64,599.69,603.25,55.97,0000 0000 0000 0000 000000
2017-05-04 02:10:02,0.01,2.06,0.00,23.09,26.67,30.56,14.73,48.94,1029.80,2031.51,2679.05,2579.45,2932.01,600.06,603.68,56.02,0000 0000 0000 0000 000000
2017-05-04 02:15:03,0.01,2.06,0.00,23.11,26.67,30.50,14.70,48.90,1029.80,2031.29,2678.56,2579.03,2931.83,599.49,603.06,56.07,0000 0000 0000 0000 000000
2017-05-04 02:20:04,0.03,2.06,0.00,23.11,26.67,30.46,14.84,49.02,1029.80,2031.26,2678.00,2578.98,2931.09,600.31,603.80,56.12,0000 0000 0000 0000 000000
2017-05-04 02:25:06,0.03,2.06,0.00,23.09,26.67,30.48,14.75,49.05,1029.80,2031.21,2677.65,2578.56,2930.99,600.08,603.74,56.17,0000 0000 0000 0000 000000
2017-05-04 02:30:07,0.03,2.07,0.00,23.13,26.67,30.43,14.75,49.02,1029.80,2031.25,2677.02,2578.04,2930.70,600.10,603.61,56.22,0000 0000 0000 0000 000000
2017-05-04 02:35:08,-0.00,2.07,0.00,23.41,26.67,30.35,14.65,48.98,1029.80,2031.13,2676.80,2577.99,2930.07,600.05,603.04,56.27,0000 0000 0000 0000 000000
2017-05-04 02:40:09,0.03,2.07,0.00,23.29,26.70,30.24,14.68,48.94,1029.80,2031.06,2676.12,2577.59,2929.92,600.04,603.32,56.32,0000 0000 0000 0000 000000
2017-05-04 02:45:11,0.02,2.07,0.00,23.54,26.72,30.21,14.74,48.96,1029.80,2031.03,2675.89,2577.02,2929.16,600.21,602.72,56.37,0000 0000 0000 0000 000000
2017-05-04 02:50:12,0.01,2.07,0.00,23.45,26.74,30.30,14.71,48.89,1029.81,2031.02,2675.13,2576.95,2928.98,600.06,602.78,56.42,0000 0000 0000 0000 000000
2017-05-04 02:55:13,0.04,2.07,0.00,23.30,26.75,30.50,14.75,49.01,1029.80,2031.00,2674.80,2576.21,2928.41,600.19,603.32,56.47,0000 0000 0000 0000 000000
2017-05-04 03:00:15,0.02,2.07,0.00,23.23,26.75,30.66,14.67,49.08,1029.81,2031.00,2674.08,2576.00,2928.01,599.84,603.08,56.52,0000 0000 0000 0000 000000
2017-05-04 03:05:16,0.01,2.07,0.00,23.23,26.75,30.59,14.77,49.07,1029.81,2031.00,2673.85,2575.92,2927.92,599.95,603.16,56.57,0000 0000 0000 0000 000000
2017-05-04 03:10:18,0.05,2.08,0.00,23.34,26.75,30.46,14.68,49.03,1029.81,2031.00,2673.09,2575.28,2927.25,599.77,602.86,56.63,0000 0000 0000 0000 000000
2017-05-04 03:15:19,0.00,2.08,0.00,23.49,26.76,30.37,14.69,49.01,1029.81,2031.00,2672.91,2575.00,2927.00,599.95,602.79,56.68,0000 0000 0000 0000 000000
2017-05-04 03:20:20,0.04,2.08,0.00,23.51,26.77,30.27,14.73,49.02,1029.81,2031.00,2672.14,2574.85,2926.48,600.20,602.93,56.73,0000 0000 0000 0000 000000
2017-05-04 03:25:21,0.02,2.08,0.00,23.72,26.79,30.26,14.64,49.02,1029.81,2031.00,2671.99,2574.18,2926.01,600.13,602.54,56.78,0000 0000 0000 0000 000000
2017-05-04 03:30:22,0.01,2.08,0.00,23.72,26.80,30.32,14.66,48.92,1029.80,2031.00,2671.45,2574.00,2925.93,600.26,602.53,56.83,0000 0000 0000 0000 000000
2017-05-04 03:35:24,0.02,2.08,0.00,23.80,26.82,30.37,14.62,49.03,1029.80,2030.98,2670.99,2573.85,2925.22,599.71,601.89,56.88,0000 0000 0000 0000 000000
2017-05-04 03:40:25,0.04,2.09,0.00,23.87,26.83,30.37,14.67,49.08,1029.80,2030.96,2670.38,2573.11,2924.99,600.15,602.19,56.93,0000 0000 0000 0000 000000
2017-05-04 03:45:26,0.01,2.09,0.00,23.71,26.85,30.36,14.62,48.85,1029.80,2030.90,2669.99,2573.00,2924.41,599.76,602.01,56.98,0000 0000 0000 0000 000000
2017-05-04 03:50:28,0.03,2.09,0.00,23.50,26.85,30.48,14.75,49.00,1029.80,2030.87,2669.43,2572.85,2924.01,600.02,602.71,57.03,0000 0000 0000 0000 000000
2017-05-04 03:55:29,0.00,2.09,0.00,23.48,26.84,30.65,14.67,49.01,1029.81,2030.71,2669.00,2572.11,2923.96,599.88,602.78,57.08,0000 0000 0000 0000 000000
2017-05-04 04:00:30,0.01,2.09,0.00,23.71,26.84,30.42,14.65,48.89,1029.80,2030.54,2668.83,2572.00,2923.33,599.96,602.10,57.13,0000 0000 0000 0000 000000
2017-05-04 04:05:31,0.02,2.09,0.00,23.70,26.85,30.29,14.59,49.08,1029.80,2030.55,2668.10,2571.97,2923.01,600.08,602.41,57.18,0000 0000 0000 0000 000000
2017-05-04 04:10:32,0.01,2.09,0.00,23.83,26.85,30.30,14.59,48.97,1029.81,2030.38,2667.92,2571.33,2922.88,599.77,601.84,57.23,0000 0000 0000 0000 000000
2017-05-04 04:15:34,0.04,2.09,0.00,23.93,26.86,30.36,14.67,49.10,1029.80,2030.33,2667.18,2571.00,2922.16,600.10,602.03,57.28,0000 0000 0000 0000 000000
2017-05-04 04:20:35,-0.02,2.09,0.00,24.03,26.87,30.38,14.69,49.08,1029.80,2030.24,2666.99,2570.99,2922.01,600.64,602.25,57.33,0000 0000 0000 0000 000000
2017-05-04 04:25:36,0.05,2.09,0.00,24.13,26.87,30.38,14.65,48.98,1029.80,2030.38,2666.65,2570.78,2921.96,600.24,601.61,57.38,0000 0000 0000 0000 000000
2017-05-04 04:30:38,0.04,2.10,0.00,24.12,26.89,30.38,14.61,49.01,1029.80,2030.42,2666.02,2570.08,2921.30,600.06,601.64,57.43,0000 0000 0000 0000 000000
2017-05-04 04:35:39,0.00,2.10,0.00,23.89,26.89,30.42,14.69,49.13,1029.80,2030.30,2665.50,2569.99,2920.99,600.07,601.98,57.48,0000 0000 0000 0000 000000
2017-05-04 04:40:41,0.03,2.10,0.00,23.88,26.88,30.41,14.64,49.04,1029.80,2030.20,2664.99,2569.56,2920.61,600.03,602.10,57.53,0000 0000 0000 0000 000000
2017-05-04 04:45:42,0.02,2.10,0.00,23.91,26.87,30.36,14.68,49.06,1029.80,2030.11,2664.53,2569.03,2920.03,600.60,602.55,57.59,0000 0000 0000 0000 000000
2017-05-04 04:50:43,0.01,2.10,0.00,23.97,26.88,30.32,14.55,49.05,1029.80,2030.13,2664.02,2569.00,2919.99,599.95,601.69,57.64,0000 0000 0000 0000 000000
2017-05-04 04:55:45,0.02,2.10,0.00,24.07,26.89,30.34,14.60,49.10,1029.79,2030.09,2663.93,2568.86,2919.63,599.77,601.37,57.69,0000 0000 0000 0000 000000
2017-05-04 05:00:46,0.05,2.10,0.00,24.06,26.90,30.35,14.57,49.06,1029.79,2030.12,2663.17,2568.16,2919.04,599.84,601.37,57.74,0000 0000 0000 0000 000000
2017-05-04 05:05:47,-0.00,2.11,0.00,24.09,26.90,30.33,14.63,49.07,1029.79,2030.11,2662.96,2568.00,2918.97,600.01,601.49,57.79,0000 0000 0000 0000 000000
2017-05-04 05:10:48,0.04,2.11,0.00,24.12,26.90,30.39,14.63,49.02,1029.80,2030.04,2662.25,2567.86,2918.33,600.52,602.00,57.84,0000 0000 0000 0000 000000
2017-05-04 05:15:49,0.02,2.11,0.00,24.24,26.90,30.37,14.59,48.88,1029.79,2030.02,2661.99,2567.19,2918.01,600.16,601.46,57.89,0000 0000 0000 0000 000000
2017-05-04 05:20:50,0.01,2.11,0.00,24.32,26.90,30.39,14.60,48.98,1029.80,2030.01,2661.48,2567.00,2917.94,599.91,601.02,57.94,0000 0000 0000 0000 000000
2017-05-04 05:25:51,0.02,2.11,0.00,24.29,26.90,30.40,14.65,49.01,1029.80,2030.02,2661.01,2566.98,2917.27,600.24,601.52,57.99,0000 0000 0000 0000 000000
2017-05-04 05:30:52,0.01,2.11,0.00,24.19,26.90,30.40,14.64,48.98,1029.80,2030.01,2660.91,2566.83,2917.01,599.92,601.23,58.04,0000 0000 0000 0000 000000
2017-05-04 05:35:54,0.04,2.11,0.00,24.00,26.90,30.36,14.64,49.08,1029.80,2030.06,2660.11,2566.12,2916.99,600.11,601.74,58.09,0000 0000 0000 0000 000000
2017-05-04 05:40:55,0.01,2.11,0.00,24.10,26.90,30.32,14.61,49.08,1029.80,2030.06,2659.94,2566.00,2916.55,600.06,601.56,58.14,0000 0000 0000 0000 000000
2017-05-04 05:45:56,0.03,2.12,0.00,24.07,26.90,30.33,14.65,49.01,1029.80,2030.03,2659.12,2565.75,2916.03,599.72,601.46,58.19,0000 0000 0000 0000 000000
2017-05-04 05:50:58,0.03,2.12,0.00,24.22,26.90,30.33,14.52,48.93,1029.80,2030.09,2658.97,2565.13,2915.98,600.15,601.45,58.24,0000 0000 0000 0000 000000
2017-05-04 05:55:59,0.02,2.12,0.00,24.28,26.90,30.37,14.57,48.99,1029.80,2030.02,2658.19,2565.00,2915.18,600.14,601.27,58.29,0000 0000 0000 0000 000000
2017-05-04 06:01:00,0.02,2.12,0.00,24.29,26.90,30.36,14.63,49.00,1029.80,2030.03,2657.92,2564.58,2914.98,599.71,600.90,58.34,0000 0000 0000 0000 000000
2017-05-04 06:06:01,0.04,2.12,0.00,24.31,26.90,30.36,14.65,48.93,1029.80,2030.04,2657.16,2564.03,2914.39,600.37,601.25,58.39,0000 0000 0000 0000 000000
2017-05-04 06:11:03,0.00,2.12,0.00,24.34,26.90,30.37,14.57,49.05,1029.80,2030.04,2656.97,2564.00,2914.00,599.79,600.78,58.44,0000 0000 0000 0000 000000
2017-05-04 06:16:04,0.03,2.12,0.00,24.39,26.89,30.37,14.52,48.92,1029.80,2030.05,2656.34,2563.76,2913.96,599.87,600.81,58.49,0000 0000 0000 0000 000000
2017-05-04 06:21:06,0.04,2.13,0.00,24.37,26.87,30.36,14.55,48.88,1029.80,2030.11,2656.00,2563.18,2913.56,600.18,601.17,58.55,0000 0000 0000 0000 000000
2017-05-04 06:26:07,0.02,2.13,0.00,24.39,26.87,30.35,14.60,48.95,1029.81,2030.18,2655.94,2563.00,2913.03,600.22,601.18,58.60,0000 0000 0000 0000 000000
2017-05-04 06:31:08,0.03,2.13,0.00,24.42,26.87,30.32,14.59,48.89,1029.82,2030.31,2655.19,2562.99,2913.00,599.91,600.80,58.65,0000 0000 0000 0000 000000
2017-05-04 06:36:10,0.01,2.13,0.00,24.39,26.86,30.32,14.59,48.90,1029.82,2030.23,2654.99,2562.83,2912.79,600.16,601.09,58.70,0000 0000 0000 0000 000000
2017-05-04 06:41:11,0.06,2.13,0.00,24.42,26.85,30.30,14.58,48.77,1029.80,2030.31,2654.35,2562.15,2912.12,599.98,600.79,58.75,0000 0000 0000 0000 000000
2017-05-04 06:46:12,0.04,2.14,0.00,24.43,26.85,30.29,14.59,49.03,1029.80,2030.63,2654.01,2562.01,2912.00,600.04,600.92,58.80,0000 0000 0000 0000 000000
2017-05-04 06:51:14,-0.01,2.14,0.00,24.43,26.84,30.28,14.59,48.85,1029.81,2030.64,2653.93,2561.99,2911.98,600.26,601.18,58.85,0000 0000 0000 0000 000000
2017-05-04 06:56:15,0.04,2.14,0.00,24.41,26.82,30.24,14.57,48.97,1029.81,2030.65,2653.19,2561.94,2911.81,599.92,600.87,58.90,0000 0000 0000 0000 000000
2017-05-04 07:01:16,0.04,2.14,0.00,24.43,26.82,30.24,14.51,48.84,1029.80,2030.77,2653.00,2561.44,2911.16,599.85,600.57,58.95,0000 0000 0000 0000 000000
2017-05-04 07:06:18,0.03,2.14,0.00,24.41,26.81,30.24,14.48,48.92,1029.81,2030.92,2652.91,2561.06,2911.02,599.82,600.74,59.00,0000 0000 0000 0000 000000
2017-05-04 07:11:19,0.01,2.14,0.00,24.42,26.80,30.22,14.58,48.91,1029.81,2030.92,2652.14,2561.00,2910.92,599.86,600.84,59.05,0000 0000 0000 0000 000000
2017-05-04 07:16:20,0.02,2.14,0.00,24.39,26.80,30.22,14.62,48.87,1029.83,2030.94,2651.97,2560.97,2910.21,600.41,601.25,59.10,0000 0000 0000 0000 000000
2017-05-04 07:21:22,0.04,2.14,0.00,24.41,26.79,30.22,14.59,48.82,1029.82,2030.93,2651.25,2560.36,2910.00,599.89,600.80,59.15,0000 0000 0000 0000 000000
2017-05-04 07:26:23,0.01,2.15,0.00,24.40,26.77,30.19,14.63,48.95,1029.81,2030.94,2651.01,2560.05,2909.99,600.11,601.15,59.20,0000 0000 0000 0000 000000
2017-05-04 07:31:24,0.00,2.15,0.00,24.40,26.77,30.17,14.65,48.93,1029.82,2030.97,2650.94,2560.00,2909.84,600.18,601.10,59.25,0000 0000 0000 0000 000000
2017-05-04 07:36:26,0.03,2.15,0.00,24.39,26.77,30.17,14.58,48.95,1029.88,2030.98,2650.29,2560.00,2909.22,600.15,601.08,59.30,0000 0000 0000 0000 000000
2017-05-04 07:41:27,0.00,2.15,0.00,24.40,26.77,30.17,14.66,48.98,1029.99,2030.98,2650.01,2559.93,2909.02,600.16,601.19,59.35,0000 0000 0000 0000 000000
2017-05-04 07:46:29,0.03,2.15,0.00,24.44,26.76,30.17,14.65,48.92,1030.03,2030.99,2649.89,2559.29,2908.99,600.39,601.23,59.40,0000 0000 0000 0000 000000
2017-05-04 07:51:30,0.02,2.15,0.00,24.43,26.75,30.17,14.57,48.89,1030.05,2030.99,2649.21,2559.01,2908.78,600.05,601.09,59.46,0000 0000 0000 0000 000000
2017-05-04 07:56:31,0.01,2.15,0.00,24.48,26.75,30.17,14.58,48.88,1030.10,2030.99,2648.99,2559.00,2908.05,600.16,601.15,59.51,0000 0000 0000 0000 000000
2017-05-04 08:01:33,0.01,2.15,0.00,24.44,26.75,30.12,14.56,48.83,1030.04,2030.99,2648.37,2558.99,2907.99,599.85,600.89,59.56,0000 0000 0000 0000 000000
2017-05-04 08:06:34,0.01,2.15,0.00,24.44,26.75,30.14,14.58,48.77,1029.99,2030.99,2648.01,2558.74,2907.91,600.13,601.05,59.61,0000 0000 0000 0000 000000
2017-05-04 08:11:36,0.04,2.16,0.00,24.42,26.74,30.14,14.62,48.90,1030.10,2030.99,2647.74,2558.07,2907.16,599.95,601.00,59.66,0000 0000 0000 0000 000000
2017-05-04 08:16:37,0.01,2.16,0.00,24.39,26.73,30.14,14.62,48.92,1030.02,2031.00,2647.02,2557.99,2906.99,600.26,601.26,59.71,0000 0000 0000 0000 000000
2017-05-04 08:21:38,0.01,2.16,0.00,24.39,26.72,30.15,14.58,48.92,1030.12,2031.00,2646.92,2557.92,2906.81,599.93,601.06,59.76,0000 0000 0000 0000 000000
2017-05-04 08:26:39,0.06,2.16,0.00,24.39,26.72,30.14,14.54,48.96,1030.18,2031.00,2646.14,2557.25,2906.12,599.70,600.86,59.81,0000 0000 0000 0000 000000
2017-05-04 08:31:41,0.00,2.16,0.00,24.41,26.72,30.13,14.61,48.88,1030.24,2031.00,2645.98,2557.00,2905.97,600.38,601.67,59.86,0000 0000 0000 0000 000000
2017-05-04 08:36:42,0.03,2.16,0.00,24.42,26.72,30.11,14.49,48.95,1030.28,2031.00,2645.38,2556.96,2905.58,599.71,600.75,59.91,0000 0000 0000 0000 000000
2017-05-04 08:41:43,0.03,2.16,0.00,24.39,26.72,30.10,14.55,48.90,1030.27,2031.00,2645.01,2556.58,2905.06,599.77,600.93,59.96,0000 0000 0000 0000 000000
2017-05-04 08:46:45,0.01,2.16,0.00,24.43,26.70,30.11,14.60,48.97,1030.25,2031.00,2644.92,2556.08,2905.00,600.05,601.16,60.01,0000 0000 0000 0000 000000
2017-05-04 08:51:46,0.02,2.17,0.00,24.44,26.70,30.11,14.62,48.89,1030.28,2031.00,2644.14,2556.00,2904.94,600.23,601.40,60.06,0000 0000 0000 0000 000000
2017-05-04 08:56:47,0.01,2.17,0.00,24.39,26.70,30.10,14.63,48.91,1030.27,2031.00,2643.99,2555.97,2904.32,600.00,601.21,60.11,0000 0000 0000 0000 000000
2017-05-04 09:01:49,0.01,0.72,0.00,24.44,26.72,30.09,12.76,42.88,1030.24,2032.33,3223.21,2925.09,3344.15,531.52,532.76,0.03,0000 0000 0000 0000 000002
2017-05-04 09:06:50,0.01,0.00,0.00,24.39,26.71,30.08,14.61,48.70,1030.18,2033.00,3509.19,3108.79,3564.00,600.16,601.33,0.04,0000 0000 0000 0000 000000
2017-05-04 09:11:51,0.01,0.00,0.00,24.38,26.70,30.11,14.53,48.61,1030.22,2033.00,3507.88,3108.06,3563.15,600.04,601.37,0.09,0000 0000 0000 0000 000000
2017-05-04 09:16:53,0.01,0.00,0.00,24.35,26.69,30.11,14.58,48.52,1030.26,2033.00,3506.97,3107.95,3562.61,599.94,601.21,0.14,0000 0000 0000 0000 000000
2017-05-04 09:21:54,0.02,0.00,0.00,24.33,26.67,30.13,14.54,48.48,1030.29,2032.99,3506.08,3107.21,3562.01,599.87,601.26,0.19,0000 0000 0000 0000 000000
2017-05-04 09:26:55,0.02,0.00,0.00,24.36,26.67,30.12,14.62,48.51,1030.28,2032.99,3505.41,3107.01,3561.46,600.24,601.54,0.24,0000 0000 0000 0000 000000
2017-05-04 09:31:56,0.01,0.00,0.00,24.32,26.67,30.11,14.59,48.49,1030.28,2032.99,3504.81,3106.88,3561.00,599.85,601.20,0.29,0000 0000 0000 0000 000000
2017-05-04 09:36:58,0.03,0.01,0.00,24.35,26.67,30.10,14.61,48.42,1030.29,2032.99,3504.05,3106.20,3560.47,600.30,601.61,0.34,0000 0000 0000 0000 000000
2017-05-04 09:41:59,0.01,0.01,0.00,24.32,26.66,30.10,14.57,48.33,1030.29,2032.99,3503.52,3106.00,3560.01,600.07,601.52,0.39,0000 0000 0000 0000 000000
2017-05-04 09:47:00,0.01,0.01,0.00,24.35,26.65,30.10,14.53,48.29,1030.29,2032.99,3503.01,3105.98,3559.80,599.99,601.30,0.44,0000 0000 0000 0000 000000
2017-05-04 09:52:01,0.04,0.01,0.00,24.37,26.65,30.10,14.61,48.33,1030.29,2032.99,3502.38,3105.40,3559.07,600.31,601.52,0.49,0000 0000 0000 0000 000000
2017-05-04 09:57:03,0.01,0.01,0.00,24.33,26.65,30.09,14.57,48.27,1030.29,2033.00,3501.88,3105.02,3558.80,600.19,601.51,0.54,0000 0000 0000 0000 000000
2017-05-04 10:02:04,0.03,0.01,0.00,24.29,26.65,30.10,14.61,48.22,1030.29,2033.01,3501.05,3104.82,3558.06,600.09,601.38,0.60,0000 0000 0000 0000 000000
2017-05-04 10:07:05,0.04,0.01,0.00,24.26,26.65,30.09,14.57,48.13,1030.29,2033.00,3500.23,3104.06,3557.66,599.67,601.13,0.65,0000 0000 0000 0000 000000
2017-05-04 10:12:06,0.00,0.01,0.00,24.32,26.65,30.10,14.58,47.99,1030.29,2033.00,3499.98,3103.99,3557.02,600.05,601.38,0.70,0000 0000 0000 0000 000000
2017-05-04 10:17:07,0.02,0.02,0.00,24.35,26.64,30.08,14.60,48.01,1030.29,2033.01,3499.23,3103.75,3556.98,600.20,601.49,0.75,0000 0000 0000 0000 000000
2017-05-04 10:22:09,0.02,0.02,0.00,24.33,26.63,30.07,14.56,47.98,1030.29,2033.00,3498.89,3103.09,3556.33,599.67,601.01,0.80,0000 0000 0000 0000 000000
2017-05-04 10:27:10,0.01,0.02,0.00,24.34,26.63,30.07,14.53,47.84,1030.29,2033.02,3498.08,3103.00,3556.00,600.14,601.48,0.85,0000 0000 0000 0000 000000
2017-05-04 10:32:11,0.04,0.02,0.00,24.39,26.62,30.07,14.61,47.86,1030.29,2033.01,3497.59,3102.56,3555.49,600.06,601.17,0.90,0000 0000 0000 0000 000000
2017-05-04 10:37:13,0.01,0.02,0.00,24.37,26.62,30.07,14.57,47.88,1030.29,2033.01,3496.99,3102.01,3555.00,600.20,601.50,0.95,0000 0000 0000 0000 000000
2017-05-04 10:42:14,0.02,0.02,0.00,24.31,26.62,30.07,14.59,47.96,1030.29,2033.01,3496.27,3101.95,3554.65,599.81,601.19,1.00,0000 0000 0000 0000 000000
2017-05-04 10:47:15,0.02,0.02,0.00,24.32,26.62,30.07,14.49,47.88,1030.29,2033.01,3495.97,3101.43,3554.05,599.76,601.11,1.05,0000 0000 0000 0000 000000
2017-05-04 10:52:16,0.02,0.02,0.00,24.30,26.61,30.06,14.62,47.94,1030.29,2033.04,3495.23,3101.01,3553.96,600.18,601.60,1.10,0000 0000 0000 0000 000000
2017-05-04 10:57:17,0.01,0.03,0.00,24.34,26.60,30.06,14.66,48.02,1030.29,2033.02,3494.85,3100.97,3553.26,600.36,601.62,1.15,0000 0000 0000 0000 000000
2017-05-04 11:02:19,0.03,0.03,0.00,24.29,26.60,30.05,14.49,47.85,1030.29,2033.07,3494.11,3100.56,3553.00,599.74,601.28,1.20,0000 0000 0000 0000 000000
2017-05-04 11:07:20,0.01,0.03,0.00,24.36,26.60,30.05,14.56,47.88,1030.29,2033.08,3493.82,3100.03,3552.75,599.89,601.20,1.25,0000 0000 0000 0000 000000
2017-05-04 11:12:22,0.02,0.03,0.00,24.38,26.60,30.05,14.59,47.74,1030.29,2033.07,3493.05,3099.98,3552.05,600.36,601.57,1.30,0000 0000 0000 0000 000000
2017-05-04 11:17:23,0.04,0.03,0.00,24.29,26.59,30.04,14.51,47.97,1030.29,2033.17,3492.60,3099.54,3551.97,599.96,601.31,1.35,0000 0000 0000 0000 000000
2017-05-04 11:22:24,0.03,0.03,0.00,24.28,26.57,30.05,14.56,48.02,1030.29,2033.32,3492.01,3099.03,3551.43,599.43,600.83,1.40,0000 0000 0000 0000 000000
2017-05-04 11:27:25,0.02,0.03,0.00,24.26,26.57,30.04,14.63,47.95,1030.29,2033.33,3491.42,3098.98,3550.99,600.22,601.72,1.45,0000 0000 0000 0000 000000
2017-05-04 11:32:26,0.03,0.03,0.00,24.30,26.57,30.03,14.60,47.80,1030.29,2033.31,3490.99,3098.50,3550.44,599.91,601.29,1.50,0000 0000 0000 0000 000000
2017-05-04 11:37:28,0.00,0.04,0.00,24.07,26.57,30.06,14.48,48.01,1030.29,2033.26,3490.27,3098.02,3550.02,599.68,601.55,1.55,0000 0000 0000 0000 000000
2017-05-04 11:42:29,0.02,0.04,0.00,23.81,26.57,30.07,14.58,48.08,1030.29,2033.19,3489.67,3097.89,3549.67,599.83,602.28,1.60,0000 0000 0000 0000 000000
2017-05-04 11:47:30,0.03,0.04,0.00,23.64,26.56,30.03,14.60,48.08,1030.29,2033.23,3489.01,3097.19,3549.03,599.92,602.51,1.65,0000 0000 0000 0000 000000
2017-05-04 11:52:31,0.02,0.04,0.00,23.75,26.55,30.03,14.62,48.04,1030.29,2033.37,3488.35,3097.00,3548.88,600.02,602.61,1.70,0000 0000 0000 0000 000000
2017-05-04 11:57:33,0.01,0.04,0.00,23.74,26.55,30.01,14.69,48.08,1030.29,2033.26,3487.97,3096.76,3548.11,600.16,602.70,1.75,0000 0000 0000 0000 000000
2017-05-04 12:02:34,0.03,0.04,0.00,23.82,26.55,30.04,14.73,48.13,1030.29,2033.21,3487.17,3096.09,3547.97,600.11,602.49,1.80,0000 0000 0000 0000 000000
2017-05-04 12:07:34,0.02,0.04,0.00,24.06,26.55,30.07,14.51,48.16,1030.29,2033.25,3486.58,3095.98,3547.27,599.97,601.84,1.85,0000 0000 0000 0000 000000
2017-05-04 12:12:36,0.05,0.05,0.00,24.12,26.57,30.09,14.55,48.08,1030.29,2033.34,3485.98,3095.31,3546.96,599.99,601.76,1.90,0000 0000 0000 0000 000000
2017-05-04 12:17:37,0.04,0.05,0.00,24.22,26.57,30.11,14.49,48.06,1030.29,2033.48,3485.17,3095.00,3546.22,599.76,601.33,1.95,0000 0000 0000 0000 000000
2017-05-04 12:22:39,0.00,0.05,0.00,24.17,26.57,30.10,14.60,48.10,1030.29,2033.42,3484.70,3094.70,3545.96,600.13,601.80,2.00,0000 0000 0000 0000 000000
2017-05-04 12:27:40,0.05,0.05,0.00,24.19,26.57,30.11,14.63,48.09,1030.29,2033.48,3484.03,3094.04,3545.23,600.26,601.86,2.05,0000 0000 0000 0000 000000
2017-05-04 12:32:41,0.02,0.05,0.00,24.17,26.57,30.11,14.59,48.02,1030.28,2033.74,3483.55,3093.99,3545.00,599.89,601.66,2.10,0000 0000 0000 0000 000000
2017-05-04 12:37:42,0.02,0.05,0.00,23.92,26.57,30.13,14.68,48.15,1030.28,2033.62,3482.90,3093.30,3544.37,600.43,602.61,2.15,0000 0000 0000 0000 000000
2017-05-04 12:42:44,0.01,0.05,0.00,23.59,26.57,30.10,14.69,48.09,1030.26,2033.46,3482.08,3093.00,3543.99,599.92,602.76,2.20,0000 0000 0000 0000 000000
2017-05-04 12:47:45,0.03,0.05,0.00,23.47,26.55,30.06,14.63,48.05,1030.27,2033.39,3481.40,3092.71,3543.50,599.74,602.85,2.25,0000 0000 0000 0000 000000
2017-05-04 12:52:46,0.02,0.06,0.00,23.39,26.54,30.20,14.65,48.19,1030.25,2033.38,3480.87,3092.04,3543.01,599.71,602.85,2.30,0000 0000 0000 0000 000000
2017-05-04 12:57:47,0.06,0.06,0.00,23.36,26.52,30.23,14.74,48.14,1030.25,2033.77,3480.10,3092.00,3542.88,600.40,603.69,2.35,0000 0000 0000 0000 000000